EW4229 Weather Reports


Display with metric or nautical units.
time (UTC)temp
F
wind
direction
speed
MPH
gust
MPH
rain 1hr
in
rain 24hr
in
rain mn
in
humidity
%
barometer
mb
20260503200049 58 294 5.0 16.0 0.00 0.00 0.00 46 1012.9
20260503193048 58 328 3.0 11.0 0.00 0.00 0.00 36 1013.3
20260503191542 57 314 6.0 16.0 0.00 0.00 0.00 37 1013.5
20260503190041 58 302 11.0 19.0 0.00 0.00 0.00 36 1013.5
20260503183055 57 304 6.0 15.0 0.00 0.00 0.00 36 1014.1
20260503181541 57 332 8.0 14.0 0.00 0.00 0.00 36 1014.0
20260503180037 56 343 6.0 13.0 0.00 0.00 0.00 40 1014.2
20260503173027 54 209 6.0 12.0 0.00 0.00 0.00 42 1014.4
20260503171524 53 258 7.0 12.0 0.00 0.00 0.00 40 1014.6
20260503081514 44 27 3.0 8.0 0.00 0.00 0.00 58 1013.2
20260503071514 44 304 2.0 6.0 0.00 0.00 0.00 65 1012.9
20260503054611 43 336 3.0 5.0 0.00 0.75 0.00 71 1013.0
20260503053003 43 308 3.0 8.0 0.00 0.75 0.00 71 1013.1
20260503051501 44 313 3.0 7.0 0.00 0.75 0.00 70 1013.0
20260503050057 0 0.0 0.0 0.00 0.77 0.00 1013.3
20260503044604 44 252 2.0 6.0 0.00 0.77 0.00 71 1013.5
20260503043059 44 290 4.0 7.0 0.00 0.77 0.00 71 1013.5
20260503041552 44 318 3.0 8.0 0.00 0.77 0.00 71 1013.7
20260503040050 45 309 3.0 7.0 0.00 0.78 0.77 70 1013.7
20260503034551 45 271 3.0 8.0 0.00 0.78 0.77 69 1013.8
20260503033109 46 296 3.0 6.0 0.00 0.78 0.77 69 1013.8
20260503031556 46 305 3.0 9.0 0.00 0.78 0.77 68 1013.8
20260503030057 46 319 5.0 9.0 0.00 0.78 0.77 66 1013.8
20260503024610 47 278 3.0 9.0 0.00 0.78 0.77 65 1013.9
20260503023049 47 316 4.0 8.0 0.00 0.78 0.77 63 1013.9
20260503021551 47 313 6.0 9.0 0.00 0.78 0.77 62 1014.0
20260503020049 47 302 2.0 8.0 0.00 0.78 0.77 62 1014.0
20260503014547 47 306 2.0 7.0 0.00 0.78 0.77 62 1014.0
20260503013047 48 324 3.0 10.0 0.00 0.78 0.77 61 1014.0
20260503011547 48 322 6.0 9.0 0.00 0.78 0.77 61 1013.9
20260503010046 48 324 5.0 10.0 0.00 0.78 0.77 61 1013.6
20260503004547 48 305 5.0 12.0 0.00 0.78 0.77 60 1013.4
20260503003043 49 307 5.0 12.0 0.00 0.78 0.77 59 1013.3
20260503001554 49 316 4.0 11.0 0.00 0.78 0.77 58 1013.2
20260503000048 50 317 8.0 14.0 0.00 0.78 0.77 57 1012.9
20260502234543 51 311 6.0 11.0 0.00 0.78 0.77 52 1012.6
20260502233059 52 334 5.0 16.0 0.00 0.78 0.77 50 1012.5
20260502231559 52 337 3.0 9.0 0.00 0.78 0.77 48 1012.3
20260502230039 0 0.0 0.0 0.00 0.78 0.77 1012.2
20260502224536 53 287 3.0 7.0 0.00 0.78 0.77 48 1012.2
20260502223046 53 313 3.0 7.0 0.00 0.78 0.77 46 1012.1
20260502221547 53 271 2.0 7.0 0.00 0.78 0.77 44 1012.2
20260502220043 53 304 1.0 5.0 0.00 0.78 0.77 44 1012.2
20260502214539 53 360 2.0 6.0 0.00 0.78 0.77 45 1012.1
20260502213042 53 335 4.0 10.0 0.00 0.78 0.77 45 1012.1
20260502211543 0 0.0 0.0 0.00 0.78 0.77 1011.9
20260502210029 54 314 3.0 8.0 0.00 0.78 0.77 46 1011.8
20260502204529 54 293 3.0 8.0 0.00 0.78 0.77 46 1011.8
20260502203030 55 313 5.0 9.0 0.00 0.78 0.77 43 1011.7
20260502201525 55 337 5.0 0.0 0.00 0.78 0.77 54 1011.9